period_start,C,m1,H,J0,J1,J2,J3,J4,J5,JA,JB,JC,JD,JJ,JK,JN,#
2016-09-30 00:03:31,0.00,0.00,0.00,21.35,26.85,30.35,14.80,46.75,1021.84,2035.99,3545.07,3153.44,3574.00,600.00,602.56,2.41,0000 0000 0000 0000 000000
2016-09-30 00:08:32,0.01,0.00,0.00,21.35,26.85,30.37,14.68,46.56,1021.83,2035.98,3545.01,3153.12,3573.99,600.01,602.46,2.46,0000 0000 0000 0000 000000
2016-09-30 00:13:34,0.00,0.00,0.00,21.29,26.86,30.34,14.73,46.77,1021.73,2035.97,3545.00,3153.02,3573.97,600.05,602.57,2.51,0000 0000 0000 0000 000000
2016-09-30 00:18:35,0.00,0.00,0.00,21.34,26.87,30.37,14.76,46.82,1021.59,2035.92,3545.00,3153.01,3573.79,599.96,602.43,2.56,0000 0000 0000 0000 000000
2016-09-30 00:23:36,-0.00,0.00,0.00,21.40,26.88,30.39,14.73,46.66,1021.56,2035.83,3544.99,3153.00,3573.45,599.88,602.15,2.61,0000 0000 0000 0000 000000
2016-09-30 00:28:38,-0.00,0.00,0.00,21.40,26.90,30.43,14.74,46.61,1021.53,2035.74,3544.87,3152.99,3573.12,599.76,602.00,2.66,0000 0000 0000 0000 000000
2016-09-30 00:33:39,-0.00,0.00,0.00,21.42,26.91,30.43,14.74,46.50,1021.51,2035.74,3544.62,3152.99,3573.05,599.97,602.12,2.71,0000 0000 0000 0000 000000
2016-09-30 00:38:41,-0.01,0.00,0.00,21.46,26.92,30.47,14.75,46.52,1021.51,2035.48,3544.17,3152.98,3573.00,599.97,601.97,2.76,0000 0000 0000 0000 000000
2016-09-30 00:43:42,-0.02,0.00,0.00,21.50,26.94,30.46,14.71,46.49,1021.51,2035.18,3544.04,3152.87,3573.00,599.44,601.46,2.81,0000 0000 0000 0000 000000
2016-09-30 00:48:44,0.01,0.00,0.00,21.48,26.95,30.48,14.77,46.61,1021.50,2035.06,3544.00,3152.40,3572.96,600.01,601.88,2.86,0000 0000 0000 0000 000000
2016-09-30 00:53:45,0.01,0.00,0.00,21.46,26.97,30.48,14.73,46.54,1021.50,2035.03,3544.00,3152.14,3572.88,599.66,601.70,2.91,0000 0000 0000 0000 000000
2016-09-30 00:58:46,0.00,0.00,0.00,21.49,26.99,30.50,14.82,46.81,1021.50,2035.02,3544.00,3152.02,3572.74,600.18,602.27,2.96,0000 0000 0000 0000 000000
2016-09-30 01:03:47,0.00,0.00,0.00,21.52,27.01,30.52,14.75,46.54,1021.50,2035.01,3543.97,3152.00,3572.25,600.65,602.56,3.02,0000 0000 0000 0000 000000
2016-09-30 01:08:48,0.00,0.00,0.00,21.50,27.03,30.55,14.76,46.55,1021.50,2035.00,3543.73,3152.00,3572.02,599.86,601.84,3.07,0000 0000 0000 0000 000000
2016-09-30 01:13:50,0.01,0.00,0.00,21.52,27.05,30.57,14.72,46.40,1021.50,2035.00,3543.10,3151.98,3572.00,600.32,602.27,3.12,0000 0000 0000 0000 000000
2016-09-30 01:18:51,0.01,0.00,0.00,21.56,27.07,30.59,14.72,46.41,1021.50,2035.00,3543.01,3151.80,3571.97,600.22,602.06,3.17,0000 0000 0000 0000 000000
2016-09-30 01:23:53,0.01,0.00,0.00,21.65,27.09,30.60,14.74,46.60,1021.50,2034.99,3543.00,3151.36,3571.73,600.21,601.85,3.22,0000 0000 0000 0000 000000
2016-09-30 01:28:54,0.01,0.00,0.00,21.69,27.11,30.61,14.77,46.60,1021.50,2034.97,3542.96,3151.02,3571.10,600.00,601.60,3.27,0000 0000 0000 0000 000000
2016-09-30 01:33:55,0.00,0.00,0.00,21.67,27.13,30.65,14.74,46.51,1021.50,2034.95,3542.73,3151.00,3571.00,600.01,601.58,3.32,0000 0000 0000 0000 000000
2016-09-30 01:38:56,0.00,0.00,0.00,21.64,27.15,30.67,14.69,46.48,1021.50,2034.90,3542.31,3151.00,3571.00,599.83,601.58,3.37,0000 0000 0000 0000 000000
2016-09-30 01:43:58,0.00,0.00,0.00,21.71,27.17,30.69,14.71,46.47,1021.50,2034.82,3542.01,3150.99,3570.98,599.64,601.18,3.42,0000 0000 0000 0000 000000
2016-09-30 01:48:59,-0.04,0.00,0.00,21.81,27.20,30.70,14.69,46.42,1021.50,2034.45,3542.00,3150.92,3570.92,599.89,601.16,3.47,0000 0000 0000 0000 000000
2016-09-30 01:54:00,0.01,0.00,0.00,21.80,27.22,30.73,14.78,46.50,1021.50,2034.40,3541.99,3150.66,3570.61,600.36,601.70,3.52,0000 0000 0000 0000 000000
2016-09-30 01:59:01,-0.01,0.00,0.00,21.81,27.24,30.75,14.79,46.43,1021.50,2034.18,3541.95,3150.18,3570.14,600.03,601.37,3.57,0000 0000 0000 0000 000000
2016-09-30 02:04:03,0.00,0.00,0.00,21.86,27.27,30.78,14.74,46.62,1021.50,2034.04,3541.39,3150.00,3570.00,600.29,601.51,3.62,0000 0000 0000 0000 000000
2016-09-30 02:09:04,0.00,0.00,0.00,21.90,27.29,30.78,14.74,46.54,1021.48,2034.02,3541.12,3150.00,3570.00,600.05,601.19,3.67,0000 0000 0000 0000 000000
2016-09-30 02:14:05,-0.00,0.00,0.00,21.97,27.32,30.80,14.75,46.62,1021.49,2034.00,3541.01,3150.00,3569.95,599.82,600.72,3.72,0000 0000 0000 0000 000000
2016-09-30 02:19:06,0.01,0.00,0.00,22.00,27.35,30.83,14.65,46.53,1021.50,2034.00,3541.00,3149.90,3569.43,599.99,600.91,3.77,0000 0000 0000 0000 000000
2016-09-30 02:24:07,0.02,0.00,0.00,21.99,27.37,30.85,14.70,46.52,1021.50,2034.00,3540.98,3149.54,3569.06,600.15,601.07,3.82,0000 0000 0000 0000 000000
2016-09-30 02:29:08,0.01,0.01,0.00,22.00,27.40,30.83,14.65,46.46,1021.50,2034.00,3540.85,3149.15,3569.00,599.84,600.75,3.87,0000 0000 0000 0000 000000
2016-09-30 02:34:10,0.01,0.01,0.00,22.05,27.42,30.84,14.69,46.48,1021.50,2033.98,3540.24,3149.01,3568.99,599.91,600.78,3.92,0000 0000 0000 0000 000000
2016-09-30 02:39:11,0.00,0.01,0.00,22.11,27.45,30.81,14.69,46.55,1021.50,2033.94,3540.00,3148.99,3568.71,600.02,600.74,3.97,0000 0000 0000 0000 000000
2016-09-30 02:44:12,-0.01,0.01,0.00,22.10,27.48,30.85,14.74,46.65,1021.50,2033.74,3540.00,3148.88,3568.06,600.12,600.89,4.02,0000 0000 0000 0000 000000
2016-09-30 02:49:13,-0.02,0.00,0.00,22.19,27.51,30.85,14.67,46.47,1021.50,2033.25,3539.79,3148.26,3568.00,599.94,600.40,4.07,0000 0000 0000 0000 000000
2016-09-30 02:54:15,0.00,0.00,0.00,22.23,27.54,30.83,14.66,46.47,1021.50,2033.04,3539.16,3148.02,3567.98,599.99,600.53,4.12,0000 0000 0000 0000 000000
2016-09-30 02:59:16,0.01,0.00,0.00,22.20,27.57,30.91,14.63,46.47,1021.50,2033.00,3539.01,3148.00,3567.52,599.77,600.41,4.17,0000 0000 0000 0000 000000
2016-09-30 03:04:17,0.00,0.01,0.00,22.26,27.60,30.90,14.69,46.51,1021.50,2033.00,3539.00,3147.98,3567.03,600.49,600.86,4.22,0000 0000 0000 0000 000000
2016-09-30 03:09:18,0.00,0.01,0.00,22.34,27.63,30.89,14.72,46.54,1021.50,2033.00,3538.95,3147.75,3567.00,600.23,600.46,4.27,0000 0000 0000 0000 000000
2016-09-30 03:14:19,0.02,0.01,0.00,22.34,27.66,30.93,14.70,46.50,1021.50,2033.00,3538.65,3147.22,3566.98,599.70,600.00,4.32,0000 0000 0000 0000 000000
2016-09-30 03:19:20,0.01,0.01,0.00,22.36,27.69,30.94,14.64,46.41,1021.50,2032.99,3538.16,3147.03,3566.65,599.96,600.16,4.37,0000 0000 0000 0000 000000
2016-09-30 03:24:22,0.01,0.01,0.00,22.37,27.71,30.96,14.69,46.58,1021.50,2032.97,3538.00,3147.00,3566.07,599.85,600.10,4.42,0000 0000 0000 0000 000000
2016-09-30 03:29:23,-0.03,0.01,0.00,22.40,27.75,30.99,14.67,46.48,1021.50,2032.75,3537.97,3146.96,3566.00,599.93,600.04,4.47,0000 0000 0000 0000 000000
2016-09-30 03:34:24,-0.02,0.00,0.00,22.45,27.77,31.02,14.74,46.58,1021.50,2032.21,3537.61,3146.58,3565.95,600.30,600.43,4.52,0000 0000 0000 0000 000000
2016-09-30 03:39:25,0.02,0.01,0.00,22.53,27.80,31.04,14.69,46.34,1021.50,2032.06,3537.09,3146.11,3565.40,600.21,600.04,4.57,0000 0000 0000 0000 000000
2016-09-30 03:44:27,0.00,0.01,0.00,22.52,27.83,31.07,14.74,46.39,1021.50,2032.01,3537.00,3146.00,3565.01,600.29,600.20,4.62,0000 0000 0000 0000 000000
2016-09-30 03:49:27,0.00,0.01,0.00,22.56,27.86,31.11,14.61,46.41,1021.50,2032.00,3536.90,3145.97,3564.98,599.68,599.37,4.67,0000 0000 0000 0000 000000
2016-09-30 03:54:29,0.02,0.01,0.00,22.54,27.89,31.16,14.63,46.37,1021.50,2032.00,3536.31,3145.67,3564.82,599.70,599.53,4.72,0000 0000 0000 0000 000000
2016-09-30 03:59:30,0.02,0.01,0.00,22.57,27.92,31.20,14.70,46.42,1021.50,2032.00,3536.04,3145.17,3564.20,600.14,599.80,4.77,0000 0000 0000 0000 000000
2016-09-30 04:04:31,0.00,0.01,0.00,22.62,27.95,31.23,14.62,46.43,1021.50,2031.98,3535.99,3145.00,3564.01,599.77,599.39,4.82,0000 0000 0000 0000 000000
2016-09-30 04:09:32,-0.01,0.01,0.00,22.73,27.98,31.24,14.67,46.50,1021.50,2031.80,3535.77,3144.95,3563.84,600.04,599.45,4.87,0000 0000 0000 0000 000000
2016-09-30 04:14:33,-0.00,0.01,0.00,22.80,28.02,31.24,14.60,46.34,1021.50,2031.37,3535.16,3144.48,3563.12,599.96,599.27,4.92,0000 0000 0000 0000 000000
2016-09-30 04:19:34,-0.01,0.01,0.00,22.77,28.06,31.23,14.61,46.40,1021.50,2031.06,3535.00,3144.02,3563.00,600.16,599.30,4.97,0000 0000 0000 0000 000000
2016-09-30 04:24:36,0.00,0.01,0.00,22.79,28.09,31.30,14.69,46.43,1021.50,2031.00,3534.98,3144.00,3562.96,600.01,599.39,5.02,0000 0000 0000 0000 000000
2016-09-30 04:29:37,0.01,0.01,0.00,22.84,28.13,31.32,14.62,46.35,1021.50,2031.00,3534.74,3143.98,3562.43,600.06,599.28,5.07,0000 0000 0000 0000 000000
2016-09-30 04:34:38,0.03,0.01,0.00,22.84,28.16,31.36,14.59,46.42,1021.50,2031.00,3534.07,3143.45,3562.02,599.60,598.83,5.12,0000 0000 0000 0000 000000
2016-09-30 04:39:40,0.00,0.01,0.00,22.86,28.19,31.40,14.69,46.44,1021.51,2030.96,3533.99,3143.02,3561.96,600.21,599.36,5.17,0000 0000 0000 0000 000000
2016-09-30 04:44:41,-0.00,0.01,0.00,22.90,28.23,31.43,14.59,46.54,1021.51,2030.83,3533.86,3143.00,3561.43,599.77,598.87,5.22,0000 0000 0000 0000 000000
2016-09-30 04:49:42,-0.03,0.01,0.00,22.96,28.26,31.45,14.61,46.45,1021.51,2030.25,3533.17,3142.82,3561.01,599.93,598.89,5.27,0000 0000 0000 0000 000000
2016-09-30 04:54:44,0.01,0.01,0.00,23.00,28.30,31.47,14.58,46.27,1021.52,2030.05,3533.00,3142.18,3560.98,599.73,598.66,5.32,0000 0000 0000 0000 000000
2016-09-30 04:59:45,0.00,0.01,0.00,23.00,28.33,31.50,14.60,46.41,1021.53,2030.01,3532.97,3142.00,3560.59,599.70,598.57,5.37,0000 0000 0000 0000 000000
2016-09-30 05:04:46,0.01,0.01,0.00,23.02,28.36,31.54,14.65,46.48,1021.57,2030.00,3532.46,3141.98,3560.05,600.23,599.15,5.42,0000 0000 0000 0000 000000
2016-09-30 05:09:48,0.01,0.01,0.00,23.05,28.39,31.58,14.61,46.39,1021.56,2030.00,3532.01,3141.78,3560.00,599.70,598.53,5.48,0000 0000 0000 0000 000000
2016-09-30 05:14:49,0.01,0.01,0.00,23.09,28.41,31.63,14.60,46.40,1021.69,2029.99,3531.99,3141.23,3559.89,599.83,598.67,5.53,0000 0000 0000 0000 000000
2016-09-30 05:19:50,0.01,0.01,0.00,23.38,28.44,31.57,14.65,46.57,1021.62,2029.97,3531.79,3141.01,3559.15,600.23,598.34,5.58,0000 0000 0000 0000 000000
2016-09-30 05:24:51,-0.01,0.01,0.00,23.71,28.47,31.58,14.60,46.35,1021.60,2029.74,3531.06,3140.99,3559.00,600.11,597.59,5.63,0000 0000 0000 0000 000000
2016-09-30 05:29:52,-0.03,0.01,0.00,23.86,28.51,31.63,14.52,46.23,1021.64,2029.18,3530.99,3140.64,3558.76,600.12,597.38,5.68,0000 0000 0000 0000 000000
2016-09-30 05:34:54,0.02,0.01,0.00,23.98,28.54,31.68,14.50,46.20,1021.77,2029.01,3530.45,3140.05,3558.04,599.84,596.94,5.73,0000 0000 0000 0000 000000
2016-09-30 05:39:55,0.00,0.01,0.00,24.07,28.58,31.71,14.55,46.22,1021.88,2029.00,3530.02,3139.99,3557.98,600.20,597.13,5.78,0000 0000 0000 0000 000000
2016-09-30 05:44:56,0.02,0.01,0.00,24.09,28.61,31.73,14.55,46.17,1021.86,2028.99,3529.98,3139.69,3557.47,600.06,596.97,5.83,0000 0000 0000 0000 000000
2016-09-30 05:49:57,0.01,0.01,0.00,24.10,28.64,31.76,14.52,46.18,1021.88,2028.97,3529.62,3139.05,3557.01,599.91,596.81,5.88,0000 0000 0000 0000 000000
2016-09-30 05:54:58,-0.00,0.01,0.00,24.09,28.67,31.76,14.50,46.25,1021.88,2028.89,3529.12,3139.00,3556.96,600.08,597.10,5.93,0000 0000 0000 0000 000000
2016-09-30 06:00:00,-0.03,0.01,0.00,24.08,28.70,31.79,14.52,46.19,1021.88,2028.38,3528.99,3138.96,3556.22,599.78,596.70,5.98,0000 0000 0000 0000 000000
2016-09-30 06:05:01,-0.01,0.01,0.00,24.12,28.72,31.81,14.59,46.24,1021.93,2028.09,3528.88,3138.56,3556.00,599.77,596.62,6.03,0000 0000 0000 0000 000000
2016-09-30 06:10:02,0.01,0.01,0.00,24.12,28.74,31.83,14.56,46.21,1021.98,2028.03,3528.39,3138.12,3556.00,600.21,597.11,6.08,0000 0000 0000 0000 000000
2016-09-30 06:15:03,0.00,0.01,0.00,24.14,28.75,31.86,14.58,46.20,1021.99,2028.00,3528.06,3138.01,3555.95,600.21,597.10,6.13,0000 0000 0000 0000 000000
2016-09-30 06:20:04,0.00,0.01,0.00,24.12,28.77,31.83,14.47,46.18,1021.99,2028.00,3528.00,3138.00,3555.59,599.49,596.44,6.18,0000 0000 0000 0000 000000
2016-09-30 06:25:06,0.00,0.01,0.00,24.10,28.77,31.83,14.58,46.27,1021.99,2028.00,3528.00,3138.00,3555.11,600.10,596.98,6.23,0000 0000 0000 0000 000000
2016-09-30 06:30:07,0.00,0.01,0.00,24.11,28.79,31.82,14.56,46.28,1021.99,2028.00,3527.93,3137.97,3555.01,600.01,596.93,6.28,0000 0000 0000 0000 000000
2016-09-30 06:35:08,0.01,0.01,0.00,24.12,28.80,31.83,14.56,46.23,1021.99,2028.00,3527.76,3137.88,3555.00,600.25,597.17,6.33,0000 0000 0000 0000 000000
2016-09-30 06:40:09,0.02,0.01,0.00,24.16,28.80,31.89,14.50,46.23,1021.99,2028.00,3527.20,3137.57,3554.98,599.98,596.81,6.38,0000 0000 0000 0000 000000
2016-09-30 06:45:11,0.00,0.01,0.00,24.14,28.80,31.89,14.52,46.17,1021.99,2027.99,3527.04,3137.36,3554.98,599.80,596.74,6.43,0000 0000 0000 0000 000000
2016-09-30 06:50:12,0.00,0.01,0.00,24.13,28.80,31.87,14.51,46.22,1021.99,2027.99,3527.01,3137.17,3554.93,600.14,597.10,6.48,0000 0000 0000 0000 000000
2016-09-30 06:55:13,0.00,0.01,0.00,24.11,28.80,31.82,14.60,46.21,1021.99,2027.98,3527.00,3137.04,3554.59,600.21,597.10,6.53,0000 0000 0000 0000 000000
2016-09-30 07:00:15,0.00,0.01,0.00,24.17,28.80,31.80,14.59,46.15,1021.99,2027.98,3526.99,3137.01,3554.11,599.97,596.78,6.58,0000 0000 0000 0000 000000
2016-09-30 07:05:16,0.00,0.01,0.00,24.17,28.80,31.82,14.52,46.20,1022.01,2027.97,3526.84,3137.00,3554.01,600.16,596.97,6.63,0000 0000 0000 0000 000000
2016-09-30 07:10:17,0.00,0.02,0.00,24.18,28.80,31.81,14.53,46.61,1022.02,2027.97,3526.44,3137.00,3554.00,600.18,596.98,6.68,0000 0000 0000 0000 000000
2016-09-30 07:15:18,0.00,0.02,0.00,24.17,28.80,31.84,14.50,46.25,1022.00,2027.95,3526.14,3136.98,3554.00,599.71,596.56,6.73,0000 0000 0000 0000 000000
2016-09-30 07:20:19,0.00,0.02,0.00,24.16,28.79,31.77,14.51,46.33,1022.01,2027.97,3526.06,3136.99,3554.00,600.24,597.03,6.78,0000 0000 0000 0000 000000
2016-09-30 07:25:21,-0.00,0.02,0.00,24.16,28.77,31.77,14.55,46.37,1022.02,2027.94,3526.02,3136.99,3553.99,600.20,597.04,6.83,0000 0000 0000 0000 000000
2016-09-30 07:30:22,0.00,0.02,0.00,24.17,28.77,31.81,14.55,46.52,1022.08,2027.96,3526.01,3136.98,3553.98,599.63,596.49,6.88,0000 0000 0000 0000 000000
2016-09-30 07:35:23,-0.00,0.02,0.00,24.17,28.77,31.86,14.55,46.26,1022.21,2027.97,3526.00,3136.96,3553.98,600.18,597.13,6.93,0000 0000 0000 0000 000000
2016-09-30 07:40:24,0.00,0.02,0.00,24.22,28.76,31.89,14.51,46.21,1022.31,2027.98,3526.02,3136.98,3553.98,599.96,597.11,6.98,0000 0000 0000 0000 000000
2016-09-30 07:45:25,-0.00,0.02,0.00,24.21,28.75,31.87,14.47,46.57,1022.16,2027.97,3526.00,3136.97,3553.94,600.01,597.06,7.03,0000 0000 0000 0000 000000
2016-09-30 07:50:26,0.00,0.02,0.00,24.21,28.75,31.88,14.48,46.33,1022.23,2027.94,3526.00,3136.99,3553.94,599.34,596.18,7.08,0000 0000 0000 0000 000000
2016-09-30 07:55:27,0.00,0.02,0.00,24.21,28.74,31.90,14.57,47.08,1022.35,2027.96,3526.00,3136.98,3553.92,600.37,597.41,7.13,0000 0000 0000 0000 000000
2016-09-30 08:00:29,0.00,0.02,0.00,24.21,28.72,31.80,14.53,46.57,1022.38,2027.98,3526.00,3136.99,3553.94,600.07,597.04,7.18,0000 0000 0000 0000 000000
2016-09-30 08:05:30,0.00,0.02,0.00,24.19,28.72,31.80,14.56,46.27,1022.41,2027.98,3526.00,3136.98,3553.96,600.01,596.96,7.23,0000 0000 0000 0000 000000
2016-09-30 08:10:31,0.00,0.02,0.00,24.21,28.71,31.81,14.51,46.47,1022.43,2027.99,3526.01,3136.99,3553.98,600.13,597.12,7.28,0000 0000 0000 0000 000000
2016-09-30 08:15:33,0.00,0.02,0.00,24.22,28.70,31.77,14.48,46.09,1022.42,2027.98,3526.00,3136.99,3553.96,599.80,596.78,7.33,0000 0000 0000 0000 000000
2016-09-30 08:20:34,0.00,0.02,0.00,24.22,28.70,31.82,14.56,46.41,1022.44,2027.99,3526.00,3136.99,3553.97,600.36,597.31,7.38,0000 0000 0000 0000 000000
2016-09-30 08:25:36,0.00,0.02,0.00,24.24,28.68,31.78,14.51,46.67,1022.47,2027.99,3525.99,3136.98,3553.94,600.05,596.95,7.43,0000 0000 0000 0000 000000
2016-09-30 08:30:37,0.00,0.02,0.00,24.18,28.67,31.79,14.52,46.67,1022.48,2027.99,3525.99,3136.98,3553.93,599.83,596.92,7.48,0000 0000 0000 0000 000000
2016-09-30 08:35:38,0.00,0.02,0.00,24.16,28.67,31.84,14.58,46.63,1022.48,2027.99,3525.98,3136.99,3553.90,600.08,597.22,7.53,0000 0000 0000 0000 000000
2016-09-30 08:40:39,0.00,0.02,0.00,24.15,28.65,31.73,14.49,46.35,1022.48,2027.99,3525.99,3136.99,3553.93,599.64,596.78,7.58,0000 0000 0000 0000 000000
2016-09-30 08:45:41,0.00,0.02,0.00,24.12,28.65,31.81,14.43,46.24,1022.48,2027.99,3525.99,3136.99,3553.96,599.86,597.01,7.63,0000 0000 0000 0000 000000
2016-09-30 08:50:42,0.00,0.02,0.00,24.06,28.64,31.75,14.54,46.15,1022.48,2027.99,3525.98,3136.99,3553.96,600.00,597.27,7.68,0000 0000 0000 0000 000000
2016-09-30 08:55:44,0.00,0.02,0.00,24.01,28.62,31.67,14.59,46.45,1022.48,2027.99,3525.97,3136.99,3553.95,600.32,597.58,7.73,0000 0000 0000 0000 000000
2016-09-30 09:00:45,0.00,0.02,0.00,24.05,28.62,31.64,14.56,46.36,1022.49,2027.99,3525.96,3136.99,3553.97,599.88,597.23,7.78,0000 0000 0000 0000 000000
2016-09-30 09:05:46,0.00,0.02,0.00,24.06,28.60,31.65,14.57,46.49,1022.49,2028.00,3525.98,3136.99,3553.97,599.95,597.28,7.83,0000 0000 0000 0000 000000
2016-09-30 09:10:47,0.00,0.02,0.00,24.02,28.60,31.65,14.52,46.11,1022.50,2028.00,3525.97,3136.99,3553.98,599.59,597.02,7.88,0000 0000 0000 0000 000000
2016-09-30 09:15:49,0.00,0.02,0.00,23.97,28.58,31.59,14.61,46.26,1022.51,2028.02,3525.99,3137.00,3553.99,600.30,597.88,7.94,0000 0000 0000 0000 000000
2016-09-30 09:20:50,0.00,0.02,0.00,23.94,28.57,31.55,14.51,46.03,1022.56,2028.05,3525.98,3137.01,3553.99,599.80,597.48,7.99,0000 0000 0000 0000 000000
2016-09-30 09:25:51,0.02,0.02,0.00,23.90,28.56,31.54,14.62,46.05,1022.53,2028.14,3525.98,3137.01,3553.99,600.13,597.85,8.04,0000 0000 0000 0000 000000
2016-09-30 09:30:52,-0.00,0.02,0.00,23.84,28.55,31.58,14.54,45.94,1022.66,2028.35,3525.98,3137.07,3554.01,600.11,597.96,8.09,0000 0000 0000 0000 000000
2016-09-30 09:35:53,0.04,0.02,0.00,23.86,28.54,31.57,14.55,46.12,1022.84,2028.54,3525.98,3137.10,3554.01,600.11,598.03,8.14,0000 0000 0000 0000 000000
2016-09-30 09:40:54,0.01,0.02,0.00,23.82,28.52,31.55,14.61,46.53,1022.87,2028.84,3525.98,3137.17,3554.03,600.24,598.33,8.19,0000 0000 0000 0000 000000
2016-09-30 09:45:56,0.01,0.02,0.00,23.82,28.52,31.54,14.64,46.42,1022.86,2028.87,3525.94,3137.11,3554.03,599.83,597.91,8.24,0000 0000 0000 0000 000000
2016-09-30 09:50:57,-0.01,0.02,0.00,23.74,28.50,31.53,14.50,46.02,1022.87,2028.98,3525.96,3137.49,3554.19,599.81,598.01,8.29,0000 0000 0000 0000 000000
2016-09-30 09:55:58,0.00,0.02,0.00,23.69,28.50,31.55,14.57,46.07,1022.88,2028.98,3525.96,3137.50,3554.16,600.04,598.35,8.34,0000 0000 0000 0000 000000
2016-09-30 10:00:59,-0.00,0.02,0.00,23.67,28.49,31.53,14.61,46.09,1022.93,2028.99,3525.93,3137.59,3554.32,600.01,598.39,8.39,0000 0000 0000 0000 000000
2016-09-30 10:06:01,-0.00,0.02,0.00,23.61,28.47,31.70,14.53,46.05,1022.93,2028.99,3525.89,3137.59,3554.48,599.88,598.51,8.44,0000 0000 0000 0000 000000
2016-09-30 10:11:02,-0.01,0.02,0.00,23.54,28.46,31.77,14.66,46.14,1022.91,2028.99,3525.89,3137.81,3554.72,600.09,598.73,8.49,0000 0000 0000 0000 000000
2016-09-30 10:16:03,0.00,0.02,0.00,23.46,28.45,31.74,14.59,46.23,1022.91,2028.99,3525.92,3137.95,3554.85,600.07,598.91,8.54,0000 0000 0000 0000 000000
2016-09-30 10:21:05,0.00,0.02,0.00,23.39,28.43,31.58,14.59,46.28,1022.90,2029.00,3525.94,3137.98,3554.93,599.99,599.03,8.59,0000 0000 0000 0000 000000
2016-09-30 10:26:06,-0.00,0.02,0.00,23.32,28.42,31.62,14.54,46.29,1022.74,2029.02,3525.93,3137.97,3554.95,599.93,599.01,8.64,0000 0000 0000 0000 000000
2016-09-30 10:31:07,-0.00,0.02,0.00,23.25,28.41,31.64,14.64,46.27,1022.62,2029.02,3525.98,3137.98,3554.98,599.95,599.07,8.69,0000 0000 0000 0000 000000
2016-09-30 10:36:08,0.00,0.02,0.00,23.23,28.40,31.69,14.63,46.27,1022.57,2029.07,3525.98,3137.99,3554.99,600.12,599.18,8.74,0000 0000 0000 0000 000000
2016-09-30 10:41:10,0.00,0.02,0.00,23.23,28.39,31.69,14.61,46.51,1022.64,2029.08,3525.98,3137.99,3554.98,600.07,599.16,8.79,0000 0000 0000 0000 000000
2016-09-30 10:46:11,0.01,0.02,0.00,23.15,28.38,31.69,14.63,46.37,1022.62,2029.21,3525.98,3137.99,3554.99,600.13,599.39,8.84,0000 0000 0000 0000 000000
2016-09-30 10:51:12,0.02,0.02,0.00,23.10,28.37,31.69,14.69,46.35,1022.67,2029.30,3525.96,3137.99,3554.99,600.29,599.61,8.89,0000 0000 0000 0000 000000
2016-09-30 10:56:13,-0.01,0.02,0.00,23.03,28.37,31.70,14.60,46.15,1022.93,2029.35,3525.96,3137.99,3554.98,599.70,599.40,8.94,0000 0000 0000 0000 000000
2016-09-30 11:01:15,-0.01,0.02,0.00,23.00,28.37,31.74,14.73,46.18,1022.95,2029.34,3525.97,3137.99,3554.97,600.12,599.72,8.99,0000 0000 0000 0000 000000
2016-09-30 11:06:16,0.01,0.02,0.00,23.01,28.37,31.73,14.64,46.33,1022.96,2029.35,3525.98,3137.99,3554.98,600.13,599.84,9.04,0000 0000 0000 0000 000000
2016-09-30 11:11:17,0.02,0.02,0.00,23.04,28.37,31.76,14.69,46.40,1022.96,2029.59,3525.97,3137.99,3554.98,600.23,599.88,9.09,0000 0000 0000 0000 000000
2016-09-30 11:16:18,-0.00,0.02,0.00,22.98,28.38,31.76,14.73,46.23,1022.96,2029.59,3525.91,3137.99,3554.98,600.09,599.88,9.14,0000 0000 0000 0000 000000
2016-09-30 11:21:19,-0.00,0.02,0.00,22.97,28.39,31.78,14.72,46.18,1022.93,2029.65,3525.85,3137.99,3554.96,600.04,599.85,9.19,0000 0000 0000 0000 000000
2016-09-30 11:26:21,0.03,0.02,0.00,22.95,28.40,31.80,14.74,46.19,1022.88,2029.77,3525.50,3137.99,3554.97,600.26,600.12,9.24,0000 0000 0000 0000 000000
2016-09-30 11:31:22,0.00,0.02,0.00,22.92,28.40,31.82,14.61,46.18,1022.69,2029.88,3525.26,3137.98,3554.97,599.76,599.53,9.29,0000 0000 0000 0000 000000
2016-09-30 11:36:23,-0.00,0.02,0.00,22.94,28.41,31.83,14.72,46.31,1022.61,2029.81,3525.04,3137.97,3554.88,600.43,600.08,9.34,0000 0000 0000 0000 000000
2016-09-30 11:41:24,0.02,0.02,0.00,23.22,28.42,31.73,14.66,46.14,1022.77,2029.91,3525.00,3137.78,3554.76,600.04,599.21,9.39,0000 0000 0000 0000 000000
2016-09-30 11:46:25,0.01,0.02,0.00,23.52,28.44,31.61,14.61,46.17,1022.76,2029.83,3524.98,3137.21,3554.14,600.07,598.53,9.44,0000 0000 0000 0000 000000
2016-09-30 11:51:27,-0.01,0.02,0.00,23.60,28.46,31.61,14.57,46.17,1022.88,2029.71,3524.78,3137.01,3554.02,600.05,598.55,9.49,0000 0000 0000 0000 000000
2016-09-30 11:56:28,-0.00,0.02,0.00,23.56,28.48,31.63,14.59,46.11,1022.89,2029.55,3524.28,3137.00,3554.00,599.96,598.54,9.54,0000 0000 0000 0000 000000
2016-09-30 12:01:29,0.00,0.02,0.00,23.50,28.50,31.64,14.58,46.03,1022.87,2029.42,3524.06,3137.00,3553.99,599.98,598.65,9.59,0000 0000 0000 0000 000000
2016-09-30 12:06:30,-0.02,0.02,0.00,23.48,28.52,31.66,14.59,46.03,1022.84,2029.29,3524.01,3136.98,3553.93,599.56,598.44,9.64,0000 0000 0000 0000 000000
2016-09-30 12:11:32,0.00,0.02,0.00,23.33,28.52,31.91,14.57,46.09,1022.55,2029.15,3524.00,3136.88,3553.48,600.16,598.98,9.69,0000 0000 0000 0000 000000
2016-09-30 12:16:33,0.01,0.02,0.00,23.16,28.54,32.00,14.68,46.20,1022.50,2029.07,3523.95,3136.62,3553.13,600.12,599.34,9.74,0000 0000 0000 0000 000000
2016-09-30 12:21:34,0.01,0.02,0.00,23.11,28.55,32.00,14.67,46.16,1022.50,2029.06,3523.88,3136.30,3553.06,599.95,599.23,9.79,0000 0000 0000 0000 000000
2016-09-30 12:26:35,0.01,0.02,0.00,23.03,28.55,31.95,14.69,46.22,1022.51,2029.05,3523.36,3136.05,3553.01,600.20,599.54,9.84,0000 0000 0000 0000 000000
2016-09-30 12:31:36,0.00,0.02,0.00,22.98,28.55,31.96,14.62,46.21,1022.50,2029.05,3523.11,3136.05,3553.00,599.74,599.30,9.89,0000 0000 0000 0000 000000
2016-09-30 12:36:37,0.00,0.02,0.00,23.02,28.54,31.94,14.74,46.19,1022.50,2029.08,3523.05,3136.06,3553.00,600.31,599.71,9.94,0000 0000 0000 0000 000000
2016-09-30 12:41:38,0.01,0.03,0.00,22.97,28.53,31.92,14.71,46.15,1022.50,2029.16,3523.04,3136.07,3553.00,600.28,599.82,9.99,0000 0000 0000 0000 000000
2016-09-30 12:46:40,0.00,0.03,0.00,22.88,28.52,31.93,14.62,46.17,1022.50,2029.20,3523.08,3136.12,3553.01,599.75,599.52,10.04,0000 0000 0000 0000 000000
2016-09-30 12:51:41,0.00,0.03,0.00,22.88,28.52,31.91,14.62,46.14,1022.50,2029.18,3523.02,3136.03,3553.00,600.02,599.77,10.09,0000 0000 0000 0000 000000
2016-09-30 12:56:42,0.00,0.03,0.00,22.86,28.52,31.91,14.62,46.16,1022.50,2029.35,3523.01,3136.04,3553.01,599.49,599.20,10.14,0000 0000 0000 0000 000000
2016-09-30 13:01:44,0.01,0.03,0.00,22.89,28.52,31.92,14.70,46.17,1022.66,2029.42,3523.01,3136.02,3553.00,599.98,599.81,10.20,0000 0000 0000 0000 000000